Weather History for Opelousas St Landry Parish Ai, LA

Change the Weather History Date:

Friday, May 30, 2014

  Actual Average (KLFT) Record (KLFT)
Temperature  
Mean Temperature 78 °F 80 °F  
Max Temperature 86 °F 89 °F 98 °F (1998)
Min Temperature 69 °F 70 °F 52 °F (1984)
Cooling Degree Days 12 14  
Month to date cooling degree days 345  
Year to date cooling degree days 599  
Growing Degree Days 28 (Base 50)    
Moisture  
Dew Point 70 °F    
Average Humidity 83    
Maximum Humidity 100    
Minimum Humidity 55    
Precipitation  
Precipitation 0.00 in 0.17 in 4.46 in (1979)
Month to date precipitation 4.60  
Year to date precipitation 22.44  
Sea Level Pressure  
Sea Level Pressure 29.85 in    
Wind  
Wind Speed 3 mph (SE)    
Max Wind Speed 12 mph    
Max Gust Speed -    
Visibility 8 miles    
Events Fog , Thunderstorm    
T = Trace of Precipitation, MM = Missing Value Source: NWS Daily Summary

Daily Weather History Graph

Daily Weather History Graph

Search for Another Location

Airport:

Trip Planner

Search our weather history database for the weather conditions in past years. The results will help you decide how hot, cold, wet, or windy it might be!

Date:

Astronomy

May. 30, 2014 Rise Set
Actual Time 6:07 AM CDT 8:05 PM CDT
Civil Twilight 5:39 AM CDT 8:32 PM CDT
Nautical Twilight 5:06 AM CDT 9:05 PM CDT
Astronomical Twilight 4:31 AM CDT 9:40 PM CDT
Moon 7:47 AM CDT (5/30) 9:46 PM CDT (5/30)
Length of Visible Light 14h 52m
Length of Day
13h 58m
Waxing Crescent, 4% of the Moon is Illuminated
May 30
Waxing Crescent
Jun 5
First Quarter
Jun 12
Full
Jun 19
Last Quarter
Jun 27
New

Hourly Weather History & Observations

Time (CDT) Temp. Heat Index Dew Point Humidity Pressure Visibility Wind Dir Wind Speed Gust Speed Precip Events Conditions
12:15 AM 72.0 °F - 71.1 °F 97% 29.84 in 10.0 mi SE 3.5 mph - N/A   Clear
12:35 AM 71.8 °F - 70.9 °F 97% 29.84 in 10.0 mi Calm Calm - N/A   Scattered Clouds
12:55 AM 71.6 °F - 70.7 °F 97% 29.84 in 10.0 mi Calm Calm - N/A   Mostly Cloudy
1:15 AM 71.1 °F - 70.3 °F 98% 29.84 in 10.0 mi ESE 3.5 mph - N/A   Scattered Clouds
1:35 AM 71.1 °F - 70.2 °F 97% 29.83 in 10.0 mi SE 3.5 mph - N/A   Clear
1:55 AM 70.3 °F - 69.4 °F 97% 29.84 in 10.0 mi Calm Calm - N/A   Clear
2:15 AM 69.8 °F - 69.3 °F 98% 29.83 in 7.0 mi Calm Calm - N/A   Mostly Cloudy
2:35 AM 70.0 °F - 69.8 °F 99% 29.83 in 10.0 mi SSE 3.5 mph - N/A   Overcast
2:55 AM 70.3 °F - 69.8 °F 98% 29.83 in 10.0 mi SSE 3.5 mph - N/A   Scattered Clouds
3:15 AM 70.0 °F - 69.4 °F 98% 29.83 in 7.0 mi Calm Calm - N/A   Clear
3:35 AM 70.0 °F - 69.6 °F 99% 29.83 in 7.0 mi Calm Calm - N/A   Scattered Clouds
3:55 AM 70.0 °F - 69.6 °F 99% 29.82 in 7.0 mi SE 4.6 mph - N/A   Clear
4:15 AM 70.3 °F - 69.8 °F 98% 29.82 in 7.0 mi SSE 4.6 mph - N/A   Clear
4:35 AM 70.7 °F - 70.0 °F 98% 29.83 in 7.0 mi South 3.5 mph - N/A   Clear
4:55 AM 70.2 °F - 69.8 °F 99% 29.83 in 7.0 mi SE 3.5 mph - N/A   Clear
5:15 AM 70.0 °F - 69.4 °F 98% 29.83 in 5.0 mi Calm Calm - N/A   Clear
5:35 AM 69.6 °F - 69.3 °F 99% 29.83 in 4.0 mi Calm Calm - N/A   Scattered Clouds
5:55 AM 69.3 °F - 69.3 °F 100% 29.83 in 3.0 mi Calm Calm - N/A   Scattered Clouds
6:15 AM 69.1 °F - 69.1 °F 100% 29.84 in 1.0 mi Calm Calm - N/A   Overcast
6:35 AM 69.3 °F - 69.3 °F 100% 29.85 in 0.2 mi Calm Calm - N/A Fog Fog
6:55 AM 69.8 °F - 69.8 °F 100% 29.85 in 0.5 mi Calm Calm - N/A Fog Fog
7:15 AM 70.3 °F - 70.3 °F 100% 29.85 in 1.0 mi Calm Calm - N/A   Overcast
7:35 AM 71.1 °F - 71.1 °F 100% 29.86 in 2.5 mi Calm Calm - N/A   Overcast
7:55 AM 72.3 °F - 72.0 °F 99% 29.86 in 4.0 mi Calm Calm - N/A   Overcast
8:15 AM 72.5 °F - 71.6 °F 97% 29.86 in 5.0 mi Calm Calm - N/A   Overcast
8:35 AM 72.9 °F - 71.6 °F 96% 29.86 in 7.0 mi Calm Calm - N/A   Overcast
8:55 AM 73.8 °F - 71.6 °F 93% 29.86 in 7.0 mi Calm Calm - N/A Thunderstorm Overcast
9:15 AM 75.4 °F - 71.8 °F 89% 29.87 in 10.0 mi Calm Calm - N/A   Overcast
9:35 AM 76.1 °F - 72.0 °F 87% 29.88 in 10.0 mi ESE 3.5 mph - N/A   Overcast
9:55 AM 78.8 °F - 73.0 °F 82% 29.88 in 10.0 mi East 6.9 mph - N/A   Overcast
10:15 AM 78.3 °F - 72.5 °F 82% 29.88 in 10.0 mi ESE 4.6 mph - N/A   Overcast
10:35 AM 79.2 °F - 72.3 °F 79% 29.88 in 10.0 mi East 4.6 mph - N/A   Overcast
10:55 AM 79.2 °F - 71.4 °F 77% 29.88 in 10.0 mi SE 4.6 mph - N/A   Mostly Cloudy
11:15 AM 80.4 °F 84.8 °F 72.9 °F 78% 29.88 in 10.0 mi ESE 8.1 mph - N/A   Mostly Cloudy
11:35 AM 81.0 °F 84.9 °F 71.1 °F 72% 29.88 in 10.0 mi SE 5.8 mph - N/A   Mostly Cloudy
11:55 AM 82.2 °F 86.2 °F 70.3 °F 67% 29.88 in 10.0 mi ESE 9.2 mph - N/A   Mostly Cloudy
12:15 PM 82.2 °F 86.2 °F 70.3 °F 67% 29.88 in 10.0 mi ESE 9.2 mph - N/A   Scattered Clouds
12:35 PM 83.1 °F 86.6 °F 69.1 °F 62% 29.87 in 10.0 mi ESE 9.2 mph - N/A   Scattered Clouds
12:55 PM 84.0 °F 87.0 °F 67.8 °F 58% 29.87 in 10.0 mi SE 8.1 mph - N/A   Scattered Clouds
1:15 PM 82.0 °F 84.7 °F 67.5 °F 61% 29.86 in 10.0 mi SE 5.8 mph - N/A   Scattered Clouds
1:35 PM 83.1 °F 86.1 °F 68.0 °F 60% 29.86 in 10.0 mi ESE 4.6 mph - N/A   Clear
1:55 PM 82.9 °F 85.6 °F 67.5 °F 59% 29.86 in 10.0 mi SSE 4.6 mph - N/A   Scattered Clouds
2:15 PM 85.6 °F 88.8 °F 68.0 °F 55% 29.85 in 10.0 mi South 6.9 mph - N/A   Mostly Cloudy
2:35 PM 83.5 °F 86.2 °F 67.1 °F 58% 29.85 in 10.0 mi SW 4.6 mph - N/A   Mostly Cloudy
2:55 PM 83.8 °F 87.5 °F 69.1 °F 61% 29.85 in 10.0 mi SSE 5.8 mph - N/A   Mostly Cloudy
3:15 PM 86.7 °F 91.0 °F 69.3 °F 56% 29.84 in 10.0 mi SSE 8.1 mph - N/A   Mostly Cloudy
4:15 PM 84.4 °F 87.9 °F 68.7 °F 59% 29.82 in 10.0 mi South 11.5 mph - N/A   Mostly Cloudy
4:35 PM 84.2 °F 87.9 °F 68.9 °F 60% 29.82 in 10.0 mi South 8.1 mph - N/A   Mostly Cloudy
4:55 PM 84.7 °F 88.8 °F 69.3 °F 60% 29.81 in 10.0 mi South 6.9 mph - N/A   Overcast
5:35 PM 82.6 °F 86.4 °F 69.8 °F 65% 29.81 in 10.0 mi SSE 11.5 mph - N/A   Overcast
5:55 PM 82.2 °F 86.0 °F 69.6 °F 66% 29.82 in 10.0 mi South 9.2 mph - N/A   Mostly Cloudy
6:15 PM 82.2 °F 85.3 °F 68.5 °F 63% 29.82 in 10.0 mi South 10.4 mph - N/A   Mostly Cloudy
6:35 PM 81.5 °F 84.6 °F 68.9 °F 65% 29.82 in 10.0 mi South 6.9 mph - N/A Thunderstorm Scattered Clouds
6:55 PM 81.7 °F 84.9 °F 68.9 °F 65% 29.82 in 10.0 mi South 5.8 mph - N/A Thunderstorm Thunderstorm
7:15 PM 81.1 °F 84.5 °F 69.8 °F 68% 29.83 in 10.0 mi East 4.6 mph - N/A Thunderstorm Mostly Cloudy
7:35 PM 79.3 °F - 70.7 °F 75% 29.84 in 10.0 mi East 9.2 mph - N/A Thunderstorm Mostly Cloudy
7:55 PM 77.5 °F - 71.1 °F 80% 29.85 in 10.0 mi East 6.9 mph - N/A Thunderstorm Mostly Cloudy
8:15 PM 76.1 °F - 70.9 °F 84% 29.85 in 10.0 mi East 6.9 mph - N/A Thunderstorm Scattered Clouds
8:35 PM 75.4 °F - 70.7 °F 85% 29.85 in 10.0 mi ESE 5.8 mph - N/A   Clear
8:55 PM 74.7 °F - 70.9 °F 88% 29.85 in 10.0 mi ESE 5.8 mph - N/A   Clear
9:15 PM 74.3 °F - 70.9 °F 89% 29.87 in 10.0 mi SSE 4.6 mph - N/A   Clear
9:35 PM 74.3 °F - 70.7 °F 88% 29.88 in 10.0 mi ESE 3.5 mph - N/A   Clear
9:55 PM 73.8 °F - 70.5 °F 90% 29.88 in 10.0 mi ESE 4.6 mph - N/A   Clear
10:15 PM 73.8 °F - 70.3 °F 89% 29.89 in 10.0 mi Calm Calm - N/A   Clear
10:35 PM 72.9 °F - 70.3 °F 92% 29.89 in 10.0 mi ESE 3.5 mph - N/A   Clear
10:55 PM 72.9 °F - 70.2 °F 91% 29.90 in 10.0 mi East 3.5 mph - N/A   Clear
11:15 PM 72.9 °F - 70.2 °F 91% 29.90 in 10.0 mi SE 3.5 mph - N/A   Clear
11:35 PM 72.7 °F - 70.2 °F 92% 29.90 in 10.0 mi ESE 4.6 mph - N/A   Clear
11:55 PM 72.9 °F - 70.2 °F 91% 29.91 in 10.0 mi East 4.6 mph - N/A   Clear